This is the latest recevied weather packets stored in our database for station/object RN1M-13. If no packets are shown the sender has not sent any weather packets the latest 10 day(s).
| Time | Temp. | Humidity | Pressure | Rain* | Wind** | Luminosity | Snow |
|---|---|---|---|---|---|---|---|
| 1777689160 | 10.56° C | 100% | 1012 hPa | - | - | - | - |
| 1777672966 | 11.67° C | 100% | 1013.3 hPa | - | - | - | - |
| 1777672066 | 11.67° C | 100% | 1013.3 hPa | - | - | - | - |
| 1777671166 | 12.22° C | 100% | 1013.6 hPa | - | - | - | - |
| 1777670266 | 12.22° C | 100% | 1013.6 hPa | - | - | - | - |
| 1777669366 | 12.22° C | 100% | 1013.6 hPa | - | - | - | - |
| 1777668466 | 11.67° C | 100% | 1013.4 hPa | - | - | - | - |
| 1777667566 | 11.67° C | 100% | 1013.4 hPa | - | - | - | - |
| 1777666666 | 11.11° C | 100% | 1013.5 hPa | - | - | - | - |
| 1777665768 | 11.11° C | 100% | 1013.6 hPa | - | - | - | - |
| 1777663972 | 11.11° C | 100% | 1013.8 hPa | - | - | - | - |
| 1777660372 | 11.11° C | 100% | 1014.7 hPa | - | - | - | - |
| 1777659472 | 11.67° C | 100% | 1014.7 hPa | - | - | - | - |
| 1777658572 | 11.67° C | 100% | 1014.7 hPa | - | - | - | - |
| 1777655872 | 13.33° C | 100% | 1015 hPa | - | - | - | - |
| 1777653180 | 13.89° C | 100% | 1015.3 hPa | - | - | - | - |
| 1777652280 | 15° C | 100% | 1015.4 hPa | - | - | - | - |
| 1777651380 | 15° C | 100% | 1015.4 hPa | - | - | - | - |
| 1777650480 | 14.44° C | 100% | 1015.5 hPa | - | - | - | - |
| 1777649580 | 14.44° C | 100% | 1015.7 hPa | - | - | - | - |
| 1777648680 | 13.89° C | 100% | 1016 hPa | - | - | - | - |
| 1777647780 | 13.33° C | 100% | 1016 hPa | - | - | - | - |
| 1777645980 | 15° C | 100% | 1016.5 hPa | - | - | - | - |
| 1777645080 | 14.44° C | 100% | 1016.4 hPa | - | - | - | - |
| 1777644181 | 16.67° C | 100% | 1016.5 hPa | - | - | - | - |
* Rain since midnight (hover to see other rain measurements)
** Current wind speed in m/s (hover to see current wind gust speed)